OPS 7641

导读

OPS 7641是美国于1984年4月14日发射的军事保密卫星,属于美国秘密军事航天项目产物,这类以“OPS”命名的卫星多承担侦察、军事通信等绝密任务,具体载荷与任务细节长期未公开。OPS 7641入轨后长期在预定轨道运行,为美国军方提供战略信息支撑,是冷战时期美国军事航天部署的组成部分,也见证了美国太空军事能力的发展。

Basic Information
目录编号:
14930
目录名称:
OPS 7641
国际标识:
1984-037A
轨道中心:
EARTH
卫星名称:
OPS 7641
卫星全名:
--
卫星状态:
在轨 (已飞行15431 天)
发射日期:
1984-04-14 UTC
国别 :
美国 (US)
星等 :
--
Orbit Information
数据来源 国际轨道数据
星历时间: 2026-07-13T19:41:53+0800
20小时前
查看轨道信息
半长轴: 42617.358km
偏心率: 0.0008959
轨道倾角: 10.149°
近地点辐角 281.959°
升交点赤经 315.744°
平近点角 101.357°
近地点: 36201.04km
远地点: 36277.402km
周期: 1459.283分钟
每日圈数: 0.986786
Detailed Information
使用方式:
暂无
2D Orbit Map
3D Orbit Map
Orbit Altitude Analysis Chart
Orbit Inclination Analysis Chart
Orbit Comprehensive Analysis Chart
View Comprehensive Chart